| time (UTC) | temp F | wind direction | speed knots | gust knots | rain 1hr in | rain 24hr in | rain mn in | humidity % | barometer mb |
| 20260504215545 | 57 | 0 | 0.0 | 0.0 | 0.00 | 0.07 | 0.07 | 95 | 1013.7 |
| 20260504215046 | 57 | 0 | 0.0 | 0.0 | 0.00 | 0.07 | 0.07 | 95 | 1013.8 |
| 20260504214607 | 57 | 0 | 0.0 | 0.0 | 0.00 | 0.07 | 0.07 | 95 | 1013.8 |
| 20260504214045 | 57 | 0 | 0.0 | 0.0 | 0.00 | 0.07 | 0.07 | 95 | 1013.8 |
| 20260504213545 | 57 | 0 | 0.0 | 0.0 | 0.00 | 0.07 | 0.07 | 95 | 1013.8 |
| 20260504213057 | 57 | 0 | 0.0 | 0.0 | 0.00 | 0.07 | 0.07 | 95 | 1013.8 |
| 20260504212545 | 57 | 0 | 0.0 | 0.0 | 0.00 | 0.07 | 0.07 | 95 | 1013.9 |
| 20260504212044 | 57 | 0 | 0.0 | 0.0 | 0.00 | 0.07 | 0.07 | 95 | 1013.8 |
| 20260504211555 | 57 | 0 | 0.0 | 0.0 | 0.00 | 0.07 | 0.07 | 94 | 1013.8 |
| 20260504211048 | 57 | 0 | 0.0 | 0.0 | 0.00 | 0.07 | 0.07 | 94 | 1013.9 |
| 20260504210548 | 57 | 0 | 0.0 | 0.0 | 0.00 | 0.07 | 0.07 | 94 | 1014.0 |
| 20260504210052 | 57 | 0 | 0.0 | 0.0 | 0.00 | 0.06 | 0.06 | 94 | 1013.8 |
| 20260504205545 | 57 | 0 | 0.0 | 0.0 | 0.00 | 0.06 | 0.06 | 94 | 1013.9 |
| 20260504205044 | 57 | 0 | 0.0 | 0.0 | 0.00 | 0.06 | 0.06 | 94 | 1013.8 |
| 20260504204555 | 57 | 0 | 0.0 | 0.0 | 0.00 | 0.06 | 0.06 | 94 | 1013.9 |
| 20260504204044 | 57 | 0 | 0.0 | 0.0 | 0.00 | 0.06 | 0.06 | 94 | 1014.0 |
| 20260504203546 | 57 | 0 | 0.0 | 0.0 | 0.00 | 0.06 | 0.06 | 94 | 1013.9 |
| 20260504203058 | 57 | 0 | 0.0 | 0.0 | 0.00 | 0.06 | 0.06 | 94 | 1013.9 |
| 20260504202545 | 57 | 0 | 0.0 | 0.0 | 0.00 | 0.06 | 0.06 | 94 | 1013.8 |
| 20260504202046 | 57 | 0 | 0.0 | 0.0 | 0.00 | 0.06 | 0.06 | 94 | 1013.8 |
| 20260504201608 | 57 | 0 | 0.0 | 0.0 | 0.00 | 0.06 | 0.06 | 94 | 1013.9 |
| 20260504201049 | 57 | 0 | 0.0 | 0.0 | 0.00 | 0.06 | 0.06 | 94 | 1013.8 |
| 20260504200545 | 57 | 0 | 0.0 | 0.0 | 0.00 | 0.06 | 0.06 | 94 | 1013.8 |
| 20260504200053 | 57 | 0 | 0.0 | 0.0 | 0.00 | 0.06 | 0.06 | 94 | 1013.8 |
| 20260504195543 | 57 | 0 | 0.0 | 0.0 | 0.00 | 0.06 | 0.06 | 94 | 1013.8 |
| 20260504195046 | 57 | 0 | 0.0 | 0.0 | 0.00 | 0.06 | 0.06 | 94 | 1013.8 |
| 20260504194554 | 57 | 0 | 0.0 | 0.0 | 0.00 | 0.06 | 0.06 | 94 | 1013.8 |
| 20260504194045 | 57 | 0 | 0.0 | 0.0 | 0.00 | 0.06 | 0.06 | 94 | 1013.8 |
| 20260504193545 | 57 | 0 | 0.0 | 0.0 | 0.00 | 0.06 | 0.06 | 94 | 1013.7 |
| 20260504193051 | 57 | 0 | 0.0 | 0.0 | 0.00 | 0.06 | 0.06 | 93 | 1013.7 |
| 20260504192542 | 57 | 0 | 0.0 | 0.0 | 0.00 | 0.06 | 0.06 | 93 | 1013.6 |
| 20260504192046 | 57 | 0 | 0.0 | 0.0 | 0.00 | 0.06 | 0.06 | 93 | 1013.5 |
| 20260504191559 | 57 | 0 | 0.0 | 0.0 | 0.00 | 0.06 | 0.06 | 93 | 1013.4 |
| 20260504191045 | 57 | 0 | 0.0 | 0.0 | 0.00 | 0.06 | 0.06 | 93 | 1013.4 |
| 20260504190545 | 58 | 0 | 0.0 | 0.0 | 0.00 | 0.06 | 0.06 | 93 | 1013.5 |
| 20260504190114 | 58 | 0 | 0.0 | 0.0 | 0.00 | 0.06 | 0.06 | 93 | 1013.4 |
| 20260504185547 | 58 | 0 | 0.0 | 0.0 | 0.00 | 0.06 | 0.06 | 93 | 1013.3 |
| 20260504185045 | 58 | 0 | 0.0 | 0.0 | 0.00 | 0.06 | 0.06 | 93 | 1013.4 |
| 20260504184615 | 58 | 0 | 0.0 | 0.0 | 0.01 | 0.06 | 0.06 | 93 | 1013.4 |
| 20260504184045 | 58 | 0 | 0.0 | 0.0 | 0.00 | 0.05 | 0.05 | 92 | 1013.4 |
| 20260504183545 | 58 | 0 | 0.0 | 0.0 | 0.00 | 0.05 | 0.05 | 92 | 1013.6 |
| 20260504183052 | 58 | 0 | 0.0 | 0.0 | 0.00 | 0.05 | 0.05 | 92 | 1013.6 |
| 20260504182544 | 58 | 0 | 0.0 | 0.0 | 0.00 | 0.05 | 0.05 | 92 | 1013.7 |
| 20260504182044 | 58 | 0 | 0.0 | 0.0 | 0.01 | 0.05 | 0.05 | 92 | 1013.7 |
| 20260504181551 | 58 | 0 | 0.0 | 0.0 | 0.01 | 0.05 | 0.05 | 92 | 1013.7 |
| 20260504181045 | 58 | 0 | 0.0 | 0.0 | 0.02 | 0.05 | 0.05 | 92 | 1013.7 |
| 20260504180544 | 58 | 0 | 0.0 | 0.0 | 0.02 | 0.05 | 0.05 | 91 | 1013.8 |
| 20260504180053 | 58 | 0 | 0.0 | 0.0 | 0.03 | 0.05 | 0.05 | 91 | 1013.8 |
| 20260504175545 | 58 | 0 | 0.0 | 0.0 | 0.03 | 0.05 | 0.05 | 91 | 1013.7 |
| 20260504175045 | 59 | 0 | 0.0 | 0.0 | 0.03 | 0.05 | 0.05 | 91 | 1013.9 |
| 20260504174554 | 59 | 0 | 0.0 | 0.0 | 0.03 | 0.04 | 0.04 | 91 | 1013.9 |
| 20260504174045 | 59 | 0 | 0.0 | 0.0 | 0.03 | 0.04 | 0.04 | 90 | 1014.0 |
| 20260504173545 | 59 | 0 | 0.0 | 0.0 | 0.03 | 0.04 | 0.04 | 90 | 1013.9 |
| 20260504173049 | 59 | 0 | 0.0 | 0.0 | 0.03 | 0.04 | 0.04 | 90 | 1014.0 |
| 20260504172544 | 59 | 0 | 0.0 | 0.0 | 0.03 | 0.04 | 0.04 | 89 | 1014.0 |
| 20260504172045 | 59 | 0 | 0.0 | 0.0 | 0.03 | 0.03 | 0.03 | 88 | 1014.0 |
| 20260504171551 | 60 | 0 | 0.0 | 2.6 | 0.03 | 0.03 | 0.03 | 88 | 1014.0 |
| 20260504171045 | 60 | 0 | 0.0 | 7.0 | 0.02 | 0.03 | 0.03 | 87 | 1014.0 |
| 20260504170544 | 60 | 0 | 0.9 | 7.0 | 0.01 | 0.02 | 0.02 | 86 | 1014.0 |
| 20260504151045 | 65 | 0 | 0.0 | 7.8 | 0.00 | 0.00 | 0.00 | 66 | 1013.4 |
| 20260504150545 | 65 | 0 | 0.0 | 4.3 | 0.00 | 0.00 | 0.00 | 66 | 1013.5 |
| 20260504141044 | 66 | 0 | 0.0 | 3.5 | 0.00 | 0.00 | 0.00 | 66 | 1013.1 |
| 20260504140546 | 67 | 0 | 0.0 | 0.9 | 0.00 | 0.00 | 0.00 | 66 | 1013.1 |
| 20260504140106 | 67 | 0 | 0.0 | 1.7 | 0.00 | 0.00 | 0.00 | 67 | 1013.2 |
| 20260504130544 | 67 | 0 | 0.0 | 6.1 | 0.00 | 0.00 | 0.00 | 67 | 1013.5 |
| 20260504120105 | 67 | 250 | 0.9 | 7.8 | 0.00 | 0.00 | 0.00 | 65 | 1013.5 |
| 20260504110547 | 68 | 0 | 0.0 | 4.3 | 0.00 | 0.00 | 0.00 | 64 | 1013.5 |
| 20260504100541 | 67 | 0 | 0.0 | 6.1 | 0.00 | 0.00 | 0.00 | 65 | 1014.1 |
| 20260504081553 | 64 | 0 | 0.0 | 5.2 | 0.00 | 0.00 | 0.00 | 70 | 1014.3 |
| 20260504081045 | 65 | 0 | 0.0 | 5.2 | 0.00 | 0.00 | 0.00 | 71 | 1014.2 |
| 20260504080541 | 64 | 0 | 0.0 | 4.3 | 0.00 | 0.00 | 0.00 | 72 | 1014.3 |
| 20260504050547 | 56 | 0 | 0.0 | 0.0 | 0.00 | 0.00 | 0.00 | 83 | 1013.4 |
| 20260504045544 | 56 | 0 | 0.0 | 0.0 | 0.00 | 0.00 | 0.00 | 84 | 1013.4 |
| 20260504045049 | 56 | 0 | 0.0 | 0.0 | 0.00 | 0.00 | 0.00 | 84 | 1013.4 |
| 20260504044552 | 56 | 0 | 0.0 | 0.0 | 0.00 | 0.00 | 0.00 | 84 | 1013.3 |
| 20260504044046 | 56 | 0 | 0.0 | 0.0 | 0.00 | 0.00 | 0.00 | 84 | 1013.2 |
| 20260504043546 | 56 | 0 | 0.0 | 0.0 | 0.00 | 0.00 | 0.00 | 84 | 1013.3 |
| 20260504043050 | 56 | 0 | 0.0 | 0.0 | 0.00 | 0.00 | 0.00 | 84 | 1013.2 |
| 20260504042545 | 56 | 0 | 0.0 | 0.0 | 0.00 | 0.00 | 0.00 | 84 | 1013.2 |
| 20260504042043 | 56 | 0 | 0.0 | 0.0 | 0.00 | 0.00 | 0.00 | 84 | 1013.2 |
| 20260504041553 | 56 | 0 | 0.0 | 0.0 | 0.00 | 0.00 | 0.00 | 84 | 1013.3 |
| 20260504041046 | 56 | 0 | 0.0 | 0.0 | 0.00 | 0.00 | 0.00 | 84 | 1013.2 |
| 20260504040548 | 56 | 0 | 0.0 | 0.0 | 0.00 | 0.00 | 0.00 | 84 | 1013.2 |
| 20260504040049 | 56 | 0 | 0.0 | 0.0 | 0.00 | 0.00 | 0.00 | 84 | 1013.2 |
| 20260504035545 | 56 | 0 | 0.0 | 0.0 | 0.00 | 0.00 | 0.00 | 84 | 1013.1 |
| 20260504035047 | 56 | 0 | 0.0 | 0.0 | 0.00 | 0.00 | 0.00 | 84 | 1013.1 |
| 20260504034553 | 56 | 0 | 0.0 | 0.0 | 0.00 | 0.00 | 0.00 | 84 | 1013.1 |
| 20260504034050 | 56 | 0 | 0.0 | 0.0 | 0.00 | 0.00 | 0.00 | 84 | 1013.0 |
| 20260504033547 | 56 | 0 | 0.0 | 0.0 | 0.00 | 0.00 | 0.00 | 84 | 1013.1 |
| 20260504033104 | 56 | 0 | 0.0 | 0.0 | 0.00 | 0.00 | 0.00 | 84 | 1013.3 |
| 20260504032547 | 56 | 0 | 0.0 | 0.0 | 0.00 | 0.00 | 0.00 | 84 | 1013.3 |
| 20260504032049 | 56 | 0 | 0.0 | 0.0 | 0.00 | 0.00 | 0.00 | 84 | 1013.4 |
| 20260504031559 | 56 | 0 | 0.0 | 0.0 | 0.00 | 0.00 | 0.00 | 84 | 1013.4 |
| 20260504031050 | 56 | 0 | 0.0 | 0.0 | 0.00 | 0.00 | 0.00 | 84 | 1013.3 |
| 20260504030545 | 56 | 0 | 0.0 | 0.0 | 0.00 | 0.00 | 0.00 | 84 | 1013.4 |
| 20260504030050 | 56 | 0 | 0.0 | 0.0 | 0.00 | 0.00 | 0.00 | 84 | 1013.4 |
| 20260504025543 | 56 | 0 | 0.0 | 0.0 | 0.00 | 0.00 | 0.00 | 83 | 1013.4 |
| 20260504025046 | 56 | 0 | 0.0 | 0.0 | 0.00 | 0.00 | 0.00 | 83 | 1013.4 |
| 20260504024601 | 56 | 0 | 0.0 | 0.0 | 0.00 | 0.00 | 0.00 | 83 | 1013.4 |
| 20260504024048 | 56 | 0 | 0.0 | 0.0 | 0.00 | 0.00 | 0.00 | 83 | 1013.4 |
| 20260504023551 | 56 | 0 | 0.0 | 0.0 | 0.00 | 0.00 | 0.00 | 83 | 1013.4 |
| 20260504023048 | 57 | 0 | 0.0 | 0.0 | 0.00 | 0.00 | 0.00 | 83 | 1013.3 |
| 20260504022547 | 57 | 0 | 0.0 | 0.0 | 0.00 | 0.00 | 0.00 | 84 | 1013.4 |
| 20260504022047 | 57 | 0 | 0.0 | 4.3 | 0.00 | 0.00 | 0.00 | 84 | 1013.3 |
| 20260504021554 | 57 | 0 | 0.0 | 4.3 | 0.00 | 0.00 | 0.00 | 84 | 1013.4 |
| 20260504021047 | 57 | 0 | 0.0 | 0.0 | 0.00 | 0.00 | 0.00 | 84 | 1013.4 |
| 20260504020547 | 57 | 0 | 0.0 | 0.0 | 0.00 | 0.00 | 0.00 | 84 | 1013.4 |
| 20260504020051 | 57 | 0 | 0.0 | 0.0 | 0.00 | 0.00 | 0.00 | 84 | 1013.3 |
| 20260504015547 | 57 | 0 | 0.0 | 0.0 | 0.00 | 0.00 | 0.00 | 84 | 1013.3 |
| 20260504015047 | 57 | 0 | 0.0 | 0.0 | 0.00 | 0.00 | 0.00 | 84 | 1013.3 |
| 20260504014550 | 57 | 0 | 0.0 | 0.0 | 0.00 | 0.00 | 0.00 | 84 | 1013.3 |
| 20260504014046 | 57 | 0 | 0.0 | 0.0 | 0.00 | 0.00 | 0.00 | 84 | 1013.3 |
| 20260504013545 | 57 | 0 | 0.0 | 0.0 | 0.00 | 0.00 | 0.00 | 84 | 1013.4 |
| 20260504013103 | 57 | 0 | 0.0 | 0.0 | 0.00 | 0.00 | 0.00 | 84 | 1013.3 |
| 20260504012546 | 57 | 0 | 0.0 | 0.0 | 0.00 | 0.00 | 0.00 | 84 | 1013.2 |
| 20260504012048 | 57 | 0 | 0.0 | 0.0 | 0.00 | 0.00 | 0.00 | 84 | 1013.3 |
| 20260504011548 | 57 | 0 | 0.0 | 0.0 | 0.00 | 0.00 | 0.00 | 84 | 1013.3 |
| 20260504011047 | 57 | 0 | 0.0 | 0.0 | 0.00 | 0.00 | 0.00 | 84 | 1013.3 |
| 20260504010545 | 57 | 0 | 0.0 | 0.0 | 0.00 | 0.00 | 0.00 | 84 | 1013.2 |
| 20260504010052 | 57 | 0 | 0.0 | 0.0 | 0.00 | 0.00 | 0.00 | 85 | 1013.2 |
| 20260504005547 | 57 | 0 | 0.0 | 0.0 | 0.00 | 0.00 | 0.00 | 85 | 1013.2 |
| 20260504005048 | 57 | 0 | 0.0 | 0.0 | 0.00 | 0.00 | 0.00 | 85 | 1013.2 |
| 20260504004601 | 57 | 0 | 0.0 | 0.0 | 0.00 | 0.00 | 0.00 | 86 | 1013.2 |
| 20260504004046 | 56 | 0 | 0.0 | 0.0 | 0.00 | 0.00 | 0.00 | 86 | 1013.2 |
| 20260504003544 | 56 | 0 | 0.0 | 0.0 | 0.00 | 0.00 | 0.00 | 86 | 1013.2 |
| 20260504003100 | 56 | 0 | 0.0 | 0.0 | 0.00 | 0.00 | 0.00 | 87 | 1013.2 |
| 20260504002546 | 56 | 0 | 0.0 | 0.0 | 0.00 | 0.00 | 0.00 | 87 | 1013.3 |
| 20260504002050 | 56 | 0 | 0.0 | 0.0 | 0.00 | 0.00 | 0.00 | 86 | 1013.3 |
| 20260504001556 | 55 | 0 | 0.0 | 0.0 | 0.00 | 0.00 | 0.00 | 86 | 1013.3 |
| 20260504001048 | 55 | 0 | 0.0 | 0.0 | 0.00 | 0.00 | 0.00 | 86 | 1013.2 |
| 20260504000546 | 55 | 0 | 0.0 | 0.0 | 0.00 | 0.00 | 0.00 | 85 | 1013.2 |
| 20260504000054 | 55 | 0 | 0.0 | 0.0 | 0.00 | 0.00 | 0.00 | 84 | 1013.2 |
| 20260503235545 | 56 | 0 | 0.0 | 0.0 | 0.00 | 0.00 | 0.00 | 84 | 1013.3 |
| 20260503235048 | 56 | 0 | 0.0 | 0.0 | 0.00 | 0.00 | 0.00 | 83 | 1013.1 |
| 20260503234552 | 56 | 0 | 0.0 | 0.0 | 0.00 | 0.00 | 0.00 | 83 | 1013.1 |
| 20260503234044 | 57 | 0 | 0.0 | 0.0 | 0.00 | 0.00 | 0.00 | 82 | 1013.1 |
| 20260503233544 | 57 | 0 | 0.0 | 0.0 | 0.00 | 0.00 | 0.00 | 81 | 1013.1 |
| 20260503233055 | 57 | 0 | 0.0 | 0.0 | 0.00 | 0.00 | 0.00 | 81 | 1013.1 |
| 20260503232545 | 58 | 0 | 0.0 | 0.0 | 0.00 | 0.00 | 0.00 | 81 | 1013.0 |
| 20260503232045 | 58 | 0 | 0.0 | 0.9 | 0.00 | 0.00 | 0.00 | 81 | 1013.0 |
| 20260503231553 | 58 | 0 | 0.0 | 0.9 | 0.00 | 0.00 | 0.00 | 81 | 1013.2 |
| 20260503231050 | 58 | 0 | 0.0 | 0.9 | 0.00 | 0.00 | 0.00 | 81 | 1013.4 |
| 20260503230547 | 58 | 0 | 0.0 | 0.0 | 0.00 | 0.00 | 0.00 | 81 | 1013.4 |
| 20260503230053 | 58 | 0 | 0.0 | 0.0 | 0.00 | 0.00 | 0.00 | 81 | 1013.5 |
| 20260503225543 | 58 | 0 | 0.0 | 0.0 | 0.00 | 0.00 | 0.00 | 81 | 1013.3 |
| 20260503225044 | 58 | 0 | 0.0 | 0.0 | 0.00 | 0.00 | 0.00 | 81 | 1013.2 |
| 20260503224549 | 58 | 0 | 0.0 | 0.0 | 0.00 | 0.00 | 0.00 | 81 | 1013.2 |
| 20260503224044 | 58 | 0 | 0.0 | 0.0 | 0.00 | 0.00 | 0.00 | 82 | 1013.1 |
| 20260503223545 | 58 | 0 | 0.0 | 0.0 | 0.00 | 0.00 | 0.00 | 82 | 1013.0 |
| 20260503223052 | 57 | 0 | 0.0 | 0.0 | 0.00 | 0.00 | 0.00 | 82 | 1013.0 |
| 20260503222546 | 57 | 0 | 0.0 | 0.0 | 0.00 | 0.00 | 0.00 | 82 | 1013.0 |
| 20260503222047 | 57 | 0 | 0.0 | 0.0 | 0.00 | 0.00 | 0.00 | 82 | 1013.0 |
| 20260503221554 | 58 | 0 | 0.0 | 0.0 | 0.00 | 0.00 | 0.00 | 81 | 1012.9 |
| 20260503221045 | 58 | 0 | 0.0 | 0.0 | 0.00 | 0.00 | 0.00 | 81 | 1013.0 |
| 20260503220545 | 58 | 0 | 0.0 | 0.0 | 0.00 | 0.00 | 0.00 | 80 | 1013.0 |